Showing default

IRIDIUM 105, 41921

Orbit data source: Space-Track

IRIDIUM 105, 41921 is a payload satellite owned by Iridium (US) in LEO that was launched on Sat, 14 Jan 2017 UTC via an FALCON 9 launch vehicle from the Air Force Western Test Range (AFWTR). Payload-class satellites include a variety of spacecraft equipped with specific instruments for various scientific and technological missions. These include communications satellites like Starlink; space stations such as the ISS; scientific satellites like the Hubble; Earth observation satellites from companies like Planet Labs, Umbra, and HawkEye 360; GPS; miniature CubeSats for education and research; and military/defense satellites.

Loading next visibility...
Identifier
41921, 2017-003E
Orbit
LEO
Country
Flag of USUS
Related business
Manufacturer
OATK SSG Gilbert
Mission
Operational Commercial Communications
Bus & Motor
ELITEBUS, Unknown motor
Mass
860 kg wet, 700 kg dry
Launch date (UTC)
2017-01-14 (9 years ago)
Launch vehicle
FALCON 9
Launch site
Air Force Western Test Range (AFWTR)
Object type
Payload
Rocket body
Debris
Shape & HBR
Trap Box + 2 Pan, 4.8 m
Radar Cross Section
10.154 m², Large (>1 m²)

Expand to show TLE details & history
Last TLE update: 18 hours ago

TLE from 18 hours ago
0 IRIDIUM 105
1 41921U 17003E   25314.79224084  .00000136  00000-0  41509-4 0  9992
2 41921  86.3974 148.1774 0002052  83.6391 276.5038 14.34218022463839
Epoch: 2025-11-10T19:00Z
TLE epoch observation values (Epoch: 2025-11-10T19:00:49.608Z)
Latitude
-0.00007°
Longitude
172.78263°
Altitude
780.551 km
Speed
7.464 km/s
True Right ascension
09h 52m 42s
True Declination
0° 00' 00"
Sunlit
Object was in daylight at epoch
Visualization orbit readout
Latitude
Unknown
Longitude
Unknown
Altitude
Unknown
Speed
Unknown
Apparent Right ascension
Unknown
Apparent Declination
Unknown
Sunlit
N/A
Visualization observer readout
Local Sidereal Time
09:48:28
Azimuth
Unknown
Elevation
Unknown
Doppler factor
Unknown
Orbital elements
Apogee altitude
776.098 km
Perigee altitude
773.163 km
Semi-major axis
7,152.768 km
Eccentricity
0.00021
Inclination
86.3974°
RAAN
148.1774°
Arg. of periapsis
83.6391°
True anomaly
276.48044°
Mean anomaly
276.5038°
Eccentric anomaly
276.49212°
Mean motion
3.58783 °/min
Orbital period
100.34 mins
BSTAR
0.000041509
Loading maneuver chart data...
Computing Atmospheric mass density...
Loading historical data...
Loading historical data...
Loading historical data...
Loading historical data...
Loading historical data...
Loading historical data...
Loading historical data...

Documentation

Showing up to 5 results
|